Find Iridium Next SV112

NORAD ID: 41925 Int'l Des: 2017-003 Owner: IRIDS Country: US Constellation: Iridium NEXT operational
LEOCIRCULARPOLAR

当前视图

正在加载3D地球...

关于 Iridium Next SV112

正在加载描述...

即将过境

Passes for default location (London). Set your location on the main map for personalized predictions.

高度历史

Loading altitude history...

两行轨道根数

1 41925U 17003J 26149.36581312 .00000104 00000-0 30133-4 0 9992
2 41925 86.3951 96.1752 0002365 87.8540 272.2927 14.34217458490578
Epoch: May 29, 2026 • Age: 21 hours

当前状态

高度 789.7 km
速度 7.47 km/s
星下点 83.96°N, 87.92°W
发射日期 Jan 14, 2017
运行时间 9.3 years
类型 communications

技术详情

分类 Payload
质量 860.00 kg
干质量 700.00 kg
总质量 860.00 kg
长度 3.10 m
直径 1.50 m
跨度 9.40 m
形状 Half Hex Prism+2 pan
制造商 OATKGA
平台类型 EliteBus
阶段状态 In Orbit
所有者/国家 IRIDS/US

Most Searched